WHITEHORSE, YK current weather conditions

sailwx.info

Wind from 160 at 13 knots

Air temperature -0.0° C
Visibility: greater than 34.8 NM
Dewpoint -3.0° C

Last reported at 2014-Oct-31 19:00 UTC.
Time now 2014-Nov-01 07:04 UTC

Location: N 60°43' W 135°04'.
View on Google Maps.

See reports from other nearby stations

  
Tides and Currents Weather Stations Pressure Air Temp Water Temp Dewpoint Dewpoint Depression Visibility Wind Speed Wind Dir Waves Ship Positions
date/time (UTC)wind fromknots sea level pressurealtimeterstation pressurevisibilityair tempwater tempwave heightnotes
2014-Oct-31 19:00 160 13 34.8-0.0
2014-Oct-31 18:00 160 9 34.8-0.0
2014-Oct-31 17:00 170 9 gusting 15 34.8-2.0
2014-Oct-31 16:00 160 6 34.8-2.0
2014-Oct-31 15:00 170 14 13.0-2.0
2014-Oct-31 14:00 180 11 13.0-2.0
2014-Oct-31 13:00 160 9 13.0-1.0
2014-Oct-31 12:00 160 8 13.0-1.0
2014-Oct-31 11:00 160 9 13.0-1.0
2014-Oct-31 10:00 170 15 13.0-2.0
2014-Oct-31 09:00 170 11 13.0-2.0
2014-Oct-31 08:00 180 9 13.0-2.0
2014-Oct-31 07:00 180 14 13.0-1.0
2014-Oct-31 06:00 170 11 13.0-1.0
2014-Oct-31 05:00 170 9 13.0-1.0
2014-Oct-31 04:42 170 10 13.0-0.0
2014-Oct-31 04:00 180 12 13.0-0.0
2014-Oct-31 03:42 180 12 13.0-0.0
2014-Oct-31 03:00 180 10 13.0-0.0
2014-Oct-31 02:00 230 12 13.0-0.0
2014-Oct-31 01:44 210 6 13.0-0.0
2014-Oct-31 01:30 140 3 8.7-0.0 Light snow.
2014-Oct-31 01:25 130 3 2.6-0.0 Light snow.
2014-Oct-31 01:00 170 7 0.9-0.0 Light snow.
2014-Oct-31 00:44 160 7 0.7-0.0 Light snow.
2014-Oct-31 00:36 160 7 0.4-0.0 Snow.
2014-Oct-31 00:20 160 9 0.7-0.0 Light snow.
2014-Oct-31 00:13 170 8 0.9-0.0 Light snow.
2014-Oct-31 00:06 180 8 1.3-0.0 Light snow.
2014-Oct-31 00:00 190 8 1.7-0.0 Light snow.
2014-Oct-30 23:38 170 12 2.6 1.0 Light snow.
2014-Oct-30 23:00 180 12 17.4 1.0 Light snow.
2014-Oct-30 22:00 180 9 8.7 1.0 Light snow.
2014-Oct-30 21:00 180 10 5.2-0.0 Light snow.
2014-Oct-30 20:42 180 11 5.2 1.0 Light snow.
2014-Oct-30 20:00 190 11 17.4-0.0 Light snow.
2014-Oct-30 19:00 180 11 gusting 17 13.0-0.0 Light snow.
2014-Oct-30 18:00 170 9 17.4-1.0 Light snow.
2014-Oct-30 17:48 180 8 5.2-1.0 Light snow.
2014-Oct-30 17:20 180 3 2.6-1.0 Light snow.
2014-Oct-30 17:13 150 3 5.2-1.0 Light snow.
2014-Oct-30 17:00 190 6 7.0-1.0 Light snow.
2014-Oct-30 16:46 160 4 13.0-1.0 Light snow.
2014-Oct-30 16:00 190 9 26.1-2.0
2014-Oct-30 15:00 170 12 13.0-2.0
2014-Oct-30 14:00 170 6 13.0-2.0
2014-Oct-30 13:00 180 11 13.0-2.0
2014-Oct-30 12:00 180 7 13.0-3.0
2014-Oct-30 11:00 160 7 13.0-3.0
2014-Oct-30 10:00 180 12 13.0-2.0
2014-Oct-30 09:00 180 11 13.0-2.0
2014-Oct-30 08:00 180 14 13.0-2.0
2014-Oct-30 07:00 190 13 13.0-1.0